Location: Orinda
(37.8771°N, 122.1797°W)
Time: 01:45:54
(UTC+00:00)

MSX - Pass Details

Date: 21 October 2019
Orbit: 894 x 906 km, 98.7° (Epoch: 16 November)

Event Time Altitude Azimuth Distance (km) Brightness Sun altitude
Rises 12:02:02 0° 15° (NNE) 3,516 7.2 -28.4°
Reaches altitude 10° 12:04:27 10° 17° (NNE) 2,572 6.5 -28.0°
Maximum altitude 12:10:11 74° 103° (ESE) 931 3.9 -26.8°
Enters shadow 12:15:13 14° 187° (S) 2,300 5.8 -25.9°
